Regional Weather Roundup
Issued by NWS Cleveland, OH

Home | Current Version | Previous Version | Text Only | Print | Product List | Glossary Off
Versions: 1 2 3 4 5 6 7 8 9 10 11 12 13 14 15 16 17 18 19 20 21 22 23 24 25 26 27 28 29 30 31 32 33 34 35 36 37 38 39 40 41 42 43 44 45 46 47 48 49 50

000
ASUS41 KCLE 281412
RWRCLE
OHIO REGIONAL WEATHER ROUNDUP
NATIONAL WEATHER SERVICE WILMINGTON, OH
1000 AM EDT SUN AUG 28 2016

NOTE: "FAIR" INDICATES FEW OR NO CLOUDS BELOW 12,000 FEET WITH NO
SIGNIFICANT WEATHER AND/OR OBSTRUCTIONS TO VISIBILITY.

OHZ001>008-015>018-024>027-034-035-043-044-281500-
   NORTHWEST OHIO

CITY           SKY/WX    TMP DP  RH WIND       PRES   REMARKS
DEFIANCE       FAIR      77  72  84 SW5       30.21R
FINDLAY        FAIR      79  71  76 SW3       30.21R
TOLEDO EXPRESS FAIR      77  75  93 SW6       30.20R
TOLEDO EXEC    FAIR      79  74  84 W7        30.20S
LIMA           FAIR      78  75  90 CALM      30.23R
$$

OHZ009>014-019>023-028>033-038-089-281500-
   NORTHEAST OHIO

CITY           SKY/WX    TMP DP  RH WIND       PRES   REMARKS
CLE-HOPKINS    FAIR      78  70  76 S3        30.23S
CLE-LAKEFRONT  FAIR      79  72  79 SW5       30.19S
CUY CO. ARPT   MOSUNNY   79  75  89 SW6       30.22S
LORAIN-ELYRIA  FAIR      77  71  82 S3        30.21F
ASHTABULA      PTSUNNY   76  73  91 SW3       30.22S
AKRON-CANTON   PTSUNNY   77  68  73 NE5       30.24R
WOOSTER        PTSUNNY   76  70  82 CALM      30.24S
MANSFIELD        N/A     79  71  76 VRB3      30.24R
YOUNGSTOWN     PTSUNNY   78  68  71 VRB5      30.23S
$$

OHZ042-051>053-060>062-070>072-077>081-281500-
  SOUTHWEST OHIO

CITY           SKY/WX    TMP DP  RH WIND       PRES   REMARKS
CINC-COVINGTON FAIR      81  71  71 E6        30.22R
CINC-LUNKEN    NOT AVBL
HAMILTON       FAIR      80  71  74 CALM      30.22R
DAYTON         FAIR      79  71  76 CALM      30.24R
WRIGHT-PAT AFB FAIR      78  72  83 NE3       30.22S
DAYTON GENERAL FAIR      80  69  69 E3        30.22R
WILMINGTON     FAIR      80  69  69 NE3       30.22S
$$

OHZ036-037-039>041-045>050-054>059-063>069-073>076-082>088-281500-
  CENTRAL AND SOUTHEAST OHIO

CITY           SKY/WX    TMP DP  RH WIND       PRES   REMARKS
COLUMBUS       PTSUNNY   75  70  84 CALM      30.22R
OSU AIRPORT    FAIR      77  71  82 E3        30.23R
BOLTON FIELD   SUNNY     79  72  78 CALM      30.24R
RICKENBACK AFB FAIR      74  71  89 NE5       30.23R
NEWARK         FAIR      76  70  82 CALM      30.23R
MARION         FAIR      78  69  73 CALM      30.23R
LANCASTER      FAIR      78  72  81 CALM      30.23R
ZANESVILLE     FAIR      77  71  82 N5        30.23R
NEW PHILLY     FAIR      81  69  67 NW3       30.24R
$$




USA.gov is the U.S. government's official web portal to all federal, state and local government web resources and services.